SL-8 DEB, 23007

Orbit data source: Space-Track

SL-8 DEB, 23007 is space debris in LEO originally from a launch on Wed, 16 Jun 1993 UTC launched from the Plesetsk Missile And Space Complex (PKMTR). Debris objects in space refer to the collection of defunct objects orbiting the Earth. Examples of debris include non-operational satellites, rocket bodies, and fragments generated from explosions, collisions, or faulty payload assembly.

Loading next visibility...
Identifier
23007, 1993-036C
Orbit
LEO
Country
Flag of CISCIS
Related business
Manufacturer
Unknown
Mission
Spacecraft
Bus & Motor
Unknown
Mass
Unknown
Launch date (UTC)
1993-06-16 (33 years ago)
Launch vehicle
Unknown
Launch site
Plesetsk Missile And Space Complex (PKMTR)
Object type
Payload
Rocket body
Debris
Shape & HBR
Unknown shape, 0.1 m
Radar Cross Section
Small (<0.1 m²)

Expand to show TLE details & history
Last TLE update: 11 hours ago

TLE from 11 hours ago
0 SL-8 DEB
1 23007U 93036C   26119.99671850  .00001171  00000-0  31940-3 0  9997
2 23007  74.0249 204.7279 0009850 172.2073   7.4529 14.48445835723099
Epoch: 2026-04-29T23:55Z
TLE epoch observation values (Epoch: 2026-04-29T23:55:16.478Z)
Latitude
0.20236°
Longitude
167.90196°
Altitude
726.384 km
Speed
7.496 km/s
True Right ascension
01h 38m 40s
True Declination
0° 12' 04"
Sunlit
Object was in daylight at epoch
Visualization orbit readout
Latitude
Unknown
Longitude
Unknown
Altitude
Unknown
Speed
Unknown
Apparent Right ascension
Unknown
Apparent Declination
Unknown
Sunlit
N/A
Visualization observer readout
Local Sidereal Time
18:30:44
Azimuth
Unknown
Elevation
Unknown
Doppler factor
Unknown
Orbital elements
Apogee altitude
735.34 km
Perigee altitude
721.34 km
Semi-major axis
7,106.477 km
Eccentricity
0.00099
Inclination
74.0249°
RAAN
204.7279°
Arg. of periapsis
172.2073°
True anomaly
7.46756°
Mean anomaly
7.4529°
Eccentric anomaly
7.46023°
Mean motion
3.62294 °/min
Orbital period
99.37 mins
BSTAR
0.0003194
Loading maneuver chart data...
Computing Atmospheric mass density...

Documentation

Showing up to 5 results
|